Tracking 22836 objects as of 18-Apr-2021
HD Live streaming from Space Station
objects crossing your sky now

BEIDOU 2 G8

Track BEIDOU 2 G8 now!
BEIDOU 2 G8 is classified as:


NORAD ID: 44231
Int'l Code: 2019-027A
Perigee: 35,771.7 km
Apogee: 35,817.2 km
Inclination: 0.3 °
Period: 1,436.1 minutes
Semi major axis: 42165 km
RCS: Unknown
Launch date: May 17, 2019
Source: People's Republic of China (PRC)
Launch site: Xichang Space Center, China (XSC)
aabbcc
Your satellite tracking list
Your tracking list is empty




NASA's NSSDC Master Catalog

Two Line Element Set (TLE):
1 44231U 19027A   21107.86423972 -.00000244  00000-0  00000+0 0  9995
2 44231   0.3429 326.2122 0005393 235.3677 100.2656  1.00269296  7153
Source of the keplerian elements: AFSPC